Regional Weather Roundup
Issued by NWS

Home | Current Version | Previous Version | Text Only | Print | Product List | Glossary On
Versions: 1 2 3 4 5 6 7 8 9 10 11 12 13 14 15 16 17 18 19 20 21 22 23 24 25 26 27 28 29 30 31 32 33 34 35 36 37 38 39 40 41 42 43 44 45 46 47 48 49 50
000
ASUS43 KFSD 211910
RWRSD

WEATHER ROUNDUP FOR SOUTH DAKOTA
NATIONAL WEATHER SERVICE SIOUX FALLS SD
100 PM CST THU NOV 21 2019

NOTE: "FAIR" INDICATES FEW OR NO CLOUDS BELOW 12,000 FEET WITH NO
SIGNIFICANT WEATHER AND/OR OBSTRUCTIONS TO VISIBILITY.


SDZ001>005-009-010-012>017-212000-
NORTHWEST AND NORTH CENTRAL SOUTH DAKOTA

CITY           SKY/WX    TMP DP  RH WIND       PRES   REMARKS
BUFFALO          N/A     33  16  49 CALM      30.12F
MOBRIDGE       SUNNY     32  17  54 NW15      30.16F WCI  22
$$

SDZ012>016-024>037-041>051-057-063-072>074-212000-
SOUTHWEST AND SOUTH CENTRAL SOUTH DAKOTA

CITY           SKY/WX    TMP DP  RH WIND       PRES   REMARKS
RAPID CTY ARPT SUNNY     32  20  61 N12       30.17F WCI  23
PIERRE         SUNNY     32  18  56 NW16      30.20F WCI  21
CUSTER         SUNNY     28   9  44 E5        30.06F WCI  23
ELLSWORTH AFB  SUNNY     32  19  58 N10       30.16F WCI  23
PHILIP         SUNNY     32  18  56 NW9G18    30.21F WCI  24
PINE RIDGE     MOSUNNY   33  19  56 NW7       30.18F WCI  27
SPEARFISH      FAIR      28  18  64 CALM      30.15F
WINNER         FAIR      30  18  60 NW17G25   30.20S WCI  18
$$

SDZ004>011-016>023-039-040-212000-
NORTHEAST SOUTH DAKOTA

CITY           SKY/WX    TMP DP  RH WIND       PRES   REMARKS
ABERDEEN       SUNNY     29  15  56 N18G24    30.17F WCI  16
WATERTOWN      CLOUDY    22  17  81 N18G28    30.09S WCI   7
BROOKINGS      FLURRIES  25  23  92 NW18      30.09R WCI  11
$$

SDZ017-020-022-023-036>040-048>070-212000-
SOUTHEAST SOUTH DAKOTA

CITY           SKY/WX    TMP DP  RH WIND       PRES   REMARKS
SIOUX FALLS    CLOUDY    30  23  75 NW18G26   30.11R WCI  18
HURON          PTSUNNY   29  18  63 N20       30.17S WCI  16
CHAMBERLAIN    MOSUNNY   32  20  61 NW14G21   30.19F WCI  22
MADISON        CLOUDY    25  25 100 N20G26    30.11R WCI  11
MITCHELL       CLOUDY    29  21  72 NW20      30.19R WCI  16
YANKTON        CLOUDY    31  25  78 NW23      30.15S WCI  18
$$

ABBREVIATIONS USED IN REMARKS
   TC - TEMPERATURE IN CELSIUS
  WCI - WIND CHILL INDEX
   HX - HEAT INDEX
  VSB - VISIBILITY





USA.gov is the U.S. government's official web portal to all federal, state and local government web resources and services.